• In Uzbekistan
  • List of Countries
  • For 7 days
  • Water Temperature
  • Satellite Maps
  • Weather Map
  • Weather Widgets
  • user-avatar
    Login

    Hourly Weather Vuno

    Today, 18 December, Monday

    Time Temperature Precipitation Wind Pressure Humidity
    00:00 +7°C° 0.1 mm 3 mps 754 mmHg 90%
    01:00 +6°C° 0.1 mm 4 mps 755 mmHg 90%
    02:00 +6°C° 0.3 mm 4 mps 755 mmHg 90%
    03:00 +6°C° 0.3 mm 4 mps 755 mmHg 90%
    04:00 +6°C° 0.3 mm 4 mps 755 mmHg 90%
    05:00 +6°C° 0.4 mm 4 mps 755 mmHg 90%
    06:00 +6°C° 0.4 mm 4 mps 755 mmHg 90%
    07:00 +6°C° 0.4 mm 4 mps 755 mmHg 91%
    08:00 +6°C° 0.2 mm 4 mps 755 mmHg 87%
    09:00 +7°C° 0.2 mm 4 mps 756 mmHg 83%
    10:00 +8°C° 0.2 mm 3 mps 756 mmHg 79%
    11:00 +7°C° 0.1 mm 4 mps 756 mmHg 77%
    12:00 +8°C° 0.1 mm 4 mps 756 mmHg 75%
    13:00 +8°C° 0.1 mm 4 mps 755 mmHg 73%
    14:00 +7°C° 0.2 mm 5 mps 756 mmHg 76%
    15:00 +6°C° 0.2 mm 5 mps 756 mmHg 79%
    16:00 +6°C° 0.2 mm 5 mps 756 mmHg 82%
    17:00 +5°C° 0.3 mm 5 mps 756 mmHg 83%
    18:00 +5°C° 0.3 mm 5 mps 757 mmHg 84%
    19:00 +3°C° 0.3 mm 5 mps 757 mmHg 85%
    20:00 +4°C° 0.1 mm 4 mps 757 mmHg 85%
    21:00 +4°C° 0.1 mm 4 mps 758 mmHg 85%
    22:00 +3°C° 0.1 mm 4 mps 758 mmHg 85%
    23:00 +3°C° 0 mm 4 mps 759 mmHg 84%

    Tomorrow, 19 December, Tuesday

    Time Temperature Precipitation Wind Pressure Humidity
    00:00 +3°C° 0 mm 3 mps 759 mmHg 84%
    01:00 +3°C° 0 mm 3 mps 759 mmHg 83%
    02:00 +2°C° 0 mm 3 mps 760 mmHg 83%
    03:00 +2°C° 0 mm 3 mps 760 mmHg 83%
    04:00 +2°C° 0 mm 3 mps 760 mmHg 83%
    05:00 +2°C° 0 mm 3 mps 761 mmHg 82%
    06:00 +2°C° 0 mm 3 mps 761 mmHg 82%
    07:00 +2°C° 0 mm 3 mps 761 mmHg 82%
    08:00 +3°C° 0 mm 3 mps 762 mmHg 77%
    09:00 +4°C° 0 mm 3 mps 762 mmHg 72%
    10:00 +5°C° 0 mm 3 mps 763 mmHg 67%
    11:00 +5°C° 0 mm 3 mps 763 mmHg 64%
    12:00 +7°C° 0 mm 3 mps 763 mmHg 61%
    13:00 +7°C° 0 mm 3 mps 762 mmHg 57%
    14:00 +7°C° 0 mm 3 mps 763 mmHg 61%
    15:00 +5°C° 0 mm 4 mps 763 mmHg 65%
    16:00 +4°C° 0 mm 4 mps 763 mmHg 69%
    17:00 +4°C° 0 mm 4 mps 763 mmHg 70%
    18:00 +3°C° 0 mm 4 mps 763 mmHg 72%
    19:00 +1°C° 0 mm 4 mps 764 mmHg 73%
    20:00 +1°C° 0 mm 4 mps 764 mmHg 73%
    21:00 +2°C° 0 mm 3 mps 764 mmHg 74%
    22:00 +2°C° 0 mm 3 mps 764 mmHg 74%
    23:00 +1°C° 0 mm 3 mps 764 mmHg 73%

    Day after tomorrow, 20 December, Wednesday

    Time Temperature Precipitation Wind Pressure Humidity
    00:00 +1°C° 0 mm 3 mps 764 mmHg 73%
    01:00 +1°C° 0 mm 3 mps 764 mmHg 72%
    02:00 +1°C° 0 mm 3 mps 764 mmHg 71%
    03:00 +1°C° 0 mm 3 mps 764 mmHg 70%
    04:00 +1°C° 0 mm 3 mps 764 mmHg 70%
    05:00 +1°C° 0 mm 3 mps 764 mmHg 69%
    06:00 +1°C° 0 mm 3 mps 764 mmHg 68%
    07:00 +1°C° 0 mm 3 mps 764 mmHg 67%
    08:00 +2°C° 0 mm 3 mps 764 mmHg 62%
    09:00 +3°C° 0 mm 3 mps 765 mmHg 56%
    10:00 +4°C° 0 mm 3 mps 765 mmHg 50%
    11:00 +5°C° 0 mm 3 mps 764 mmHg 47%
    12:00 +7°C° 0 mm 2 mps 764 mmHg 44%
    13:00 +7°C° 0 mm 2 mps 764 mmHg 41%
    14:00 +6°C° 0 mm 2 mps 764 mmHg 46%
    15:00 +6°C° 0 mm 2 mps 764 mmHg 51%
    16:00 +4°C° 0 mm 3 mps 764 mmHg 55%
    17:00 +3°C° 0 mm 3 mps 764 mmHg 58%
    18:00 +3°C° 0 mm 3 mps 764 mmHg 60%
    19:00 +2°C° 0 mm 3 mps 764 mmHg 63%
    20:00 +2°C° 0 mm 3 mps 764 mmHg 63%
    21:00 +1°C° 0 mm 3 mps 765 mmHg 64%
    22:00 +1°C° 0 mm 3 mps 765 mmHg 65%
    23:00 +1°C° 0 mm 3 mps 765 mmHg 64%

    21 December, Thursday

    Time Temperature Precipitation Wind Pressure Humidity
    00:00 +1°C° 0 mm 3 mps 765 mmHg 64%
    01:00 +1°C° 0 mm 3 mps 765 mmHg 63%
    02:00 +1°C° 0 mm 3 mps 765 mmHg 62%
    03:00 +1°C° 0 mm 3 mps 765 mmHg 61%
    04:00 +1°C° 0 mm 3 mps 764 mmHg 60%
    05:00 +1°C° 0 mm 3 mps 765 mmHg 60%
    06:00 +1°C° 0 mm 3 mps 765 mmHg 59%
    07:00 +1°C° 0 mm 3 mps 765 mmHg 58%
    08:00 +2°C° 0 mm 3 mps 765 mmHg 54%
    09:00 +3°C° 0 mm 3 mps 766 mmHg 49%
    10:00 +5°C° 0 mm 3 mps 766 mmHg 44%
    11:00 +5°C° 0 mm 3 mps 765 mmHg 42%
    12:00 +7°C° 0 mm 3 mps 765 mmHg 39%
    13:00 +7°C° 0 mm 4 mps 765 mmHg 37%
    14:00 +6°C° 0 mm 4 mps 765 mmHg 43%
    15:00 +5°C° 0 mm 4 mps 765 mmHg 49%
    16:00 +4°C° 0 mm 4 mps 765 mmHg 55%
    17:00 +3°C° 0 mm 4 mps 765 mmHg 58%
    18:00 +1°C° 0 mm 4 mps 765 mmHg 62%
    19:00 +1°C° 0 mm 4 mps 765 mmHg 65%
    20:00 +1°C° 0 mm 4 mps 766 mmHg 66%
    21:00 0°C° 0 mm 4 mps 766 mmHg 67%
    22:00 0°C° 0 mm 4 mps 766 mmHg 68%
    23:00 0°C° 0 mm 4 mps 766 mmHg 66%

    22 December, Friday

    Time Temperature Precipitation Wind Pressure Humidity
    00:00 0°C° 0 mm 4 mps 766 mmHg 64%
    01:00 +1°C° 0 mm 3 mps 766 mmHg 63%
    02:00 +1°C° 0 mm 3 mps 765 mmHg 59%
    03:00 0°C° 0 mm 4 mps 765 mmHg 55%
    04:00 0°C° 0 mm 4 mps 765 mmHg 51%
    05:00 +1°C° 0 mm 4 mps 765 mmHg 47%
    06:00 +1°C° 0 mm 4 mps 765 mmHg 44%
    07:00 +1°C° 0 mm 4 mps 765 mmHg 40%
    08:00 +4°C° 0 mm 4 mps 765 mmHg 38%
    09:00 +6°C° 0 mm 4 mps 765 mmHg 35%
    10:00 +8°C° 0 mm 4 mps 764 mmHg 32%
    11:00 +9°C° 0 mm 3 mps 764 mmHg 33%
    12:00 +10°C° 0 mm 3 mps 763 mmHg 33%
    13:00 +11°C° 0 mm 3 mps 763 mmHg 34%
    14:00 +10°C° 0 mm 3 mps 762 mmHg 40%
    15:00 +8°C° 0 mm 3 mps 762 mmHg 46%
    16:00 +7°C° 0 mm 3 mps 762 mmHg 51%
    17:00 +5°C° 0 mm 3 mps 762 mmHg 51%
    18:00 +5°C° 0 mm 3 mps 762 mmHg 52%
    19:00 +4°C° 0 mm 4 mps 762 mmHg 52%
    20:00 +4°C° 0 mm 4 mps 762 mmHg 51%
    21:00 +4°C° 0 mm 4 mps 762 mmHg 50%
    22:00 +4°C° 0 mm 4 mps 762 mmHg 49%
    23:00 +4°C° 0 mm 4 mps 762 mmHg 50%

    23 December, Saturday

    Time Temperature Precipitation Wind Pressure Humidity
    00:00 +4°C° 0 mm 4 mps 762 mmHg 51%
    01:00 +4°C° 0 mm 4 mps 761 mmHg 52%
    02:00 +4°C° 0 mm 4 mps 761 mmHg 55%
    03:00 +4°C° 0 mm 3 mps 761 mmHg 58%
    04:00 +4°C° 0 mm 3 mps 760 mmHg 60%
    05:00 +4°C° 0 mm 3 mps 760 mmHg 63%
    06:00 +4°C° 0 mm 4 mps 760 mmHg 66%
    07:00 +4°C° 0 mm 4 mps 760 mmHg 69%
    08:00 +5°C° 0 mm 3 mps 760 mmHg 66%
    09:00 +8°C° 0 mm 3 mps 760 mmHg 64%
    10:00 +10°C° 0 mm 3 mps 760 mmHg 61%
    11:00 +11°C° 0 mm 3 mps 759 mmHg 57%
    12:00 +11°C° 0 mm 3 mps 758 mmHg 53%
    13:00 +12°C° 0 mm 3 mps 757 mmHg 49%
    14:00 +11°C° 0 mm 3 mps 757 mmHg 54%
    15:00 +10°C° 0 mm 3 mps 757 mmHg 60%
    16:00 +7°C° 0 mm 4 mps 757 mmHg 65%
    17:00 +7°C° 0 mm 4 mps 757 mmHg 67%
    18:00 +6°C° 0 mm 4 mps 757 mmHg 70%
    19:00 +5°C° 0 mm 5 mps 757 mmHg 72%
    20:00 +5°C° 0 mm 5 mps 757 mmHg 70%
    21:00 +3°C° 0 mm 5 mps 757 mmHg 68%
    22:00 +3°C° 0 mm 5 mps 757 mmHg 66%
    23:00 +3°C° 0.1 mm 5 mps 757 mmHg 68%
    Show more